Weather observations for the past three days for
Schenectady Airport
Imperial (Metric)
Date Time (edt) Wind (mph) Vis. (mi.) Weather Sky Cond. Temperature (ºF) Relative Humidity Wind Chill (°F) Heat Index (°F) Pressure Precipitation (in)
Air Dwpt 6 hour altimeter (in) sea level (mb) 1 hr 3 hr 6 hr
Max. Min.
02 21:57 S 12 G 20 10.00 Overcast OVC030 66.2 60.8 83% 30.04 0.0
02 19:55 S 9 G 17 10.00 Overcast OVC030 68 60.8 78% 30.03 0.0
02 18:59 S 6 10.00 Overcast SCT013 OVC018 68 60.8 78% 30.06 0.0
02 14:45 S 6 10.00 Mostly Cloudy BKN022 BKN120 71.6 60.8 69% 30.11 0.0
02 13:47 S 8 10.00 Overcast OVC024 66.2 59 78% 30.12 0.0
02 12:47 S 6 10.00 Overcast OVC022 68 59 73% 30.13 0.0
02 11:46 S 8 10.00 Overcast OVC020 68 59 73% 30.14 0.0
02 10:46 S 5 10.00 Overcast OVC020 66.2 57.2 73% 30.14 0.0
02 09:46 S 8 10.00 Overcast OVC020 66.2 59 78% 30.14 0.0
02 08:46 S 7 10.00 Overcast SCT013 OVC018 64.4 62.6 94% 30.13 0.0
02 07:45 S 5 10.00 Overcast OVC015 64.4 62.6 94% 30.13 0.0
01 21:59 S 3 2.50 Light Drizzle SCT006 BKN014 OVC019 66.2 66.2 100% 30.06 0.0
01 19:50 Calm 10.00 Overcast OVC018 69.8 68 94% 30.02 0.0
01 16:54 N 6 10.00 Overcast OVC020 71.6 68 88% 30.01 0.0
01 14:45 NE 9 10.00 Overcast OVC011 69.8 69.8 100% 30 0.0
01 13:45 NE 6 5.00 Overcast OVC007 69.8 69.8 100% 30 0.0
01 11:46 Calm 5.00 Overcast BKN005 OVC011 69.8 69.8 100% 30 0.0
01 10:45 N 3 10.00 Overcast OVC005 66.2 66.2 100% 30.01 0.0
01 09:45 E 6 10.00 Overcast BKN005 OVC011 68 66.2 94% 30.01 0.0
01 08:45 NE 8 7.00 Rain OVC005 66.2 66.2 100% 30.01 0.0
01 07:45 NE 3 7.00 Rain BKN005 BKN014 OVC060 66.2 66.2 100% 30.01 0.0
31 21:48 Calm 10.00 Fair CLR 68 66.2 94% 30.07 0.0
31 16:49 SW 6 4.00 Heavy Drizzle SCT029 OVC040 71.6 64.4 78% 30.09 0.0
31 15:54 Vrbl 6 10.00 Overcast SCT032 BKN041 OVC120 80.6 60.8 51% 81 30.08 0.0
31 08:55 E 3 10.00 Fair CLR 69.8 64.4 83% 30.16 0.0
Date Time (edt) Wind (mph) Vis. (mi.) Weather Sky Cond. Air Dwpt Max. Min. Relative Humidity Wind Chill (°F) Heat Index (°F) altimeter (in) sea level (mb) 1 hr 3 hr 6 hr
6 hour
Temperature (ºF) Pressure Precipitation (in)